Weather in Erino

Russia / Moscow Oblast     55°26′51″N   37°31′11″E
temp.,
°C
wind,
m/s
gust,
m/s
humid.,
%
clouds,
%
prec.,
mm/h
press.,
hPa
HPBL,
m
2 march, tue
tue200:00+1w61493100 0.0 1014681
03:00+1w61393100 0.0 1012727
06:00+1w61392100 0.0 1010633
09:00+1wnw51291100 0.1 1009708
12:00+1wnw51199100 0.1 1008761
15:00+1nw5119595 0.3 1008837
18:000nw4128592 0.1 1009574
21:00−1nw6129296 0.3 1011760
3 march, wed
wed300:00−2nw51289100 0.1 1012770
03:00−4nw5138889 0.1 1014584
06:00−6nw5138724 0.0 1015632
09:00−4nw5138812 0.0 1016717
12:00−1wnw610850 0.0 1015913
15:00−1wnw698650 0.1 10151025
18:00−1wnw51188100 0.1 1014738
21:00−2wnw51188100 0.1 1014745
4 march, thu
thu400:00−2wsw41088100 0.0 1010517
03:00−1wsw7139699 0.4 1007643
06:00−1wsw71585100 0.1 1003751
09:00−1w71388100 0.1 1002790
12:000wsw61198100 0.3 1000678
15:000wsw61199100 0.8 999769
18:00−1nnw61097100 1.6 998657
21:00−3nw41085100 1.9 1001465
5 march, fri
fri500:00−6nw389146 0.0 1003251
03:00−7nw369533 0.0 1006160
06:00−7nw229680 0.1 100726
09:00−7wnw129669 0.1 1009112
12:00−4wnw238682 0.1 1010529
15:00−3w127591 0.1 1010821
18:00−5ssw128173 0.0 101021
21:00−6w229478 0.1 101252
6 march, sat
sat600:00−8nnw239162 0.2 101237
03:00−9nw238931 0.2 101347
06:00−10nw34930 0.0 101393
09:00−9nw37930 0.0 1013301
12:00−6nw468181 0.0 1014956
15:00−6nw468190 0.2 1014934
18:00−8nw3886100 0.3 1014344
21:00−11wnw238867 0.3 101456